• In Russia
  • List of Countries
  • For 7 days
  • Water Temperature
  • Weather Map
  • Weather Widgets
  • user-avatar
    Login

    Hourly Weather Fier

    Today, 28 January, Tuesday

    Time Temperature Precipitation Wind Pressure Humidity
    00:00 +10°C° 0.1 mm 2 mps 762 mmHg 85%
    01:00 +10°C° 0 mm 2 mps 762 mmHg 85%
    02:00 +11°C° 0 mm 1 mps 762 mmHg 84%
    03:00 +11°C° 0 mm 1 mps 762 mmHg 83%
    04:00 +10°C° 0 mm 1 mps 762 mmHg 82%
    05:00 +11°C° 0 mm 1 mps 762 mmHg 82%
    06:00 +11°C° 0 mm 1 mps 762 mmHg 82%
    07:00 +10°C° 0 mm 2 mps 762 mmHg 81%
    08:00 +12°C° 0 mm 2 mps 762 mmHg 78%
    09:00 +12°C° 0 mm 2 mps 762 mmHg 74%
    10:00 +12°C° 0 mm 3 mps 762 mmHg 70%
    11:00 +13°C° 0 mm 3 mps 762 mmHg 68%
    12:00 +14°C° 0 mm 3 mps 761 mmHg 65%
    13:00 +14°C° 0 mm 3 mps 761 mmHg 62%
    14:00 +14°C° 0 mm 4 mps 761 mmHg 65%
    15:00 +14°C° 0 mm 4 mps 760 mmHg 68%
    16:00 +13°C° 0 mm 4 mps 760 mmHg 71%
    17:00 +13°C° 0 mm 4 mps 760 mmHg 74%
    18:00 +12°C° 0 mm 4 mps 760 mmHg 76%
    19:00 +10°C° 0 mm 5 mps 760 mmHg 78%
    20:00 +10°C° 0 mm 5 mps 760 mmHg 78%
    21:00 +9°C° 0 mm 5 mps 760 mmHg 79%
    22:00 +9°C° 0 mm 5 mps 760 mmHg 79%
    23:00 +9°C° 0 mm 5 mps 759 mmHg 79%

    Tomorrow, 29 January, Wednesday

    Time Temperature Precipitation Wind Pressure Humidity
    00:00 +9°C° 0 mm 5 mps 759 mmHg 80%
    01:00 +9°C° 0 mm 5 mps 759 mmHg 80%
    02:00 +9°C° 0 mm 6 mps 758 mmHg 80%
    03:00 +10°C° 0 mm 6 mps 758 mmHg 79%
    04:00 +10°C° 0 mm 6 mps 757 mmHg 78%
    05:00 +10°C° 0.1 mm 6 mps 757 mmHg 78%
    06:00 +10°C° 0.1 mm 6 mps 757 mmHg 78%
    07:00 +10°C° 0.1 mm 6 mps 757 mmHg 78%
    08:00 +13°C° 0.3 mm 6 mps 757 mmHg 77%
    09:00 +14°C° 0.3 mm 6 mps 757 mmHg 75%
    10:00 +15°C° 0.3 mm 6 mps 758 mmHg 73%
    11:00 +15°C° 0.1 mm 6 mps 757 mmHg 71%
    12:00 +15°C° 0.1 mm 5 mps 757 mmHg 68%
    13:00 +15°C° 0.1 mm 5 mps 757 mmHg 66%
    14:00 +15°C° 0.1 mm 4 mps 757 mmHg 68%
    15:00 +14°C° 0.1 mm 3 mps 757 mmHg 70%
    16:00 +14°C° 0.1 mm 2 mps 757 mmHg 72%
    17:00 +14°C° 0.2 mm 2 mps 757 mmHg 73%
    18:00 +13°C° 0.2 mm 2 mps 758 mmHg 75%
    19:00 +12°C° 0.2 mm 2 mps 758 mmHg 77%
    20:00 +12°C° 0.5 mm 2 mps 759 mmHg 79%
    21:00 +12°C° 0.5 mm 2 mps 759 mmHg 81%
    22:00 +12°C° 0.5 mm 2 mps 759 mmHg 83%
    23:00 +12°C° 0.3 mm 2 mps 759 mmHg 82%

    Day after tomorrow, 30 January, Thursday

    Time Temperature Precipitation Wind Pressure Humidity
    00:00 +12°C° 0.3 mm 2 mps 759 mmHg 81%
    01:00 +11°C° 0.3 mm 3 mps 759 mmHg 81%
    02:00 +10°C° 0.4 mm 2 mps 760 mmHg 82%
    03:00 +10°C° 0.4 mm 2 mps 760 mmHg 84%
    04:00 +10°C° 0.4 mm 2 mps 760 mmHg 86%
    05:00 +9°C° 0.1 mm 2 mps 761 mmHg 86%
    06:00 +9°C° 0.1 mm 2 mps 761 mmHg 86%
    07:00 +9°C° 0.1 mm 2 mps 762 mmHg 86%
    08:00 +10°C° 0 mm 2 mps 762 mmHg 80%
    09:00 +12°C° 0 mm 2 mps 763 mmHg 74%
    10:00 +14°C° 0 mm 2 mps 764 mmHg 69%
    11:00 +13°C° 0 mm 3 mps 764 mmHg 64%
    12:00 +14°C° 0 mm 3 mps 763 mmHg 60%
    13:00 +14°C° 0 mm 4 mps 763 mmHg 55%
    14:00 +14°C° 0 mm 3 mps 763 mmHg 58%
    15:00 +13°C° 0 mm 3 mps 763 mmHg 61%
    16:00 +13°C° 0 mm 3 mps 763 mmHg 64%
    17:00 +13°C° 0 mm 2 mps 764 mmHg 67%
    18:00 +10°C° 0 mm 2 mps 764 mmHg 69%
    19:00 +10°C° 0 mm 1 mps 764 mmHg 72%
    20:00 +9°C° 0 mm 2 mps 764 mmHg 71%
    21:00 +9°C° 0 mm 2 mps 764 mmHg 71%
    22:00 +8°C° 0 mm 2 mps 764 mmHg 71%
    23:00 +8°C° 0 mm 2 mps 764 mmHg 68%

    31 January, Friday

    Time Temperature Precipitation Wind Pressure Humidity
    00:00 +8°C° 0 mm 2 mps 764 mmHg 64%
    01:00 +8°C° 0 mm 2 mps 764 mmHg 61%
    02:00 +8°C° 0 mm 2 mps 764 mmHg 58%
    03:00 +8°C° 0 mm 2 mps 764 mmHg 55%
    04:00 +8°C° 0 mm 2 mps 764 mmHg 52%
    05:00 +8°C° 0 mm 2 mps 764 mmHg 51%
    06:00 +7°C° 0 mm 3 mps 764 mmHg 50%
    07:00 +7°C° 0 mm 3 mps 764 mmHg 49%
    08:00 +9°C° 0 mm 3 mps 764 mmHg 47%
    09:00 +11°C° 0 mm 3 mps 764 mmHg 45%
    10:00 +12°C° 0 mm 3 mps 764 mmHg 44%
    11:00 +13°C° 0 mm 3 mps 764 mmHg 45%
    12:00 +14°C° 0 mm 3 mps 763 mmHg 47%
    13:00 +16°C° 0 mm 3 mps 763 mmHg 49%
    14:00 +14°C° 0 mm 3 mps 763 mmHg 54%
    15:00 +14°C° 0 mm 3 mps 763 mmHg 58%
    16:00 +14°C° 0 mm 3 mps 763 mmHg 63%
    17:00 +13°C° 0 mm 3 mps 763 mmHg 65%
    18:00 +12°C° 0 mm 3 mps 763 mmHg 68%
    19:00 +12°C° 0 mm 2 mps 763 mmHg 70%
    20:00 +10°C° 0 mm 2 mps 763 mmHg 71%
    21:00 +10°C° 0 mm 2 mps 763 mmHg 72%
    22:00 +10°C° 0 mm 2 mps 764 mmHg 73%
    23:00 +9°C° 0 mm 2 mps 764 mmHg 74%

    1 February, Saturday

    Time Temperature Precipitation Wind Pressure Humidity
    00:00 +9°C° 0 mm 2 mps 763 mmHg 75%
    01:00 +9°C° 0 mm 2 mps 763 mmHg 76%
    02:00 +9°C° 0 mm 2 mps 763 mmHg 77%
    03:00 +9°C° 0 mm 2 mps 763 mmHg 77%
    04:00 +9°C° 0 mm 2 mps 763 mmHg 77%
    05:00 +9°C° 0 mm 2 mps 763 mmHg 77%
    06:00 +8°C° 0 mm 2 mps 763 mmHg 77%
    07:00 +8°C° 0 mm 2 mps 763 mmHg 77%
    08:00 +10°C° 0 mm 2 mps 763 mmHg 72%
    09:00 +13°C° 0 mm 2 mps 763 mmHg 67%
    10:00 +14°C° 0 mm 1 mps 763 mmHg 62%
    11:00 +15°C° 0 mm 1 mps 763 mmHg 61%
    12:00 +16°C° 0 mm 1 mps 762 mmHg 60%
    13:00 +16°C° 0 mm 1 mps 762 mmHg 60%
    14:00 +16°C° 0 mm 1 mps 762 mmHg 63%
    15:00 +16°C° 0 mm 1 mps 762 mmHg 67%
    16:00 +15°C° 0 mm 1 mps 761 mmHg 70%
    17:00 +14°C° 0 mm 1 mps 762 mmHg 74%
    18:00 +12°C° 0 mm 0 mps 762 mmHg 78%
    19:00 +11°C° 0 mm 0 mps 762 mmHg 82%
    20:00 +11°C° 0 mm 0 mps 762 mmHg 83%
    21:00 +12°C° 0 mm 1 mps 762 mmHg 83%
    22:00 +11°C° 0 mm 1 mps 762 mmHg 84%
    23:00 +11°C° 0 mm 1 mps 762 mmHg 83%

    2 February, Sunday

    Time Temperature Precipitation Wind Pressure Humidity
    00:00 +11°C° 0 mm 1 mps 762 mmHg 83%
    01:00 +11°C° 0 mm 1 mps 762 mmHg 83%
    02:00 +11°C° 0 mm 1 mps 762 mmHg 82%
    03:00 +11°C° 0 mm 1 mps 762 mmHg 82%
    04:00 +11°C° 0 mm 1 mps 762 mmHg 82%
    05:00 +11°C° 0 mm 1 mps 762 mmHg 81%
    06:00 +11°C° 0 mm 1 mps 762 mmHg 81%
    07:00 +11°C° 0 mm 1 mps 762 mmHg 80%
    08:00 +12°C° 0 mm 1 mps 763 mmHg 77%
    09:00 +13°C° 0 mm 1 mps 763 mmHg 75%
    10:00 +14°C° 0 mm 1 mps 764 mmHg 72%
    11:00 +14°C° 0.1 mm 1 mps 764 mmHg 75%
    12:00 +14°C° 0.1 mm 2 mps 764 mmHg 78%
    13:00 +12°C° 0.1 mm 3 mps 764 mmHg 81%
    14:00 +13°C° 0 mm 3 mps 764 mmHg 80%
    15:00 +13°C° 0 mm 4 mps 764 mmHg 79%
    16:00 +13°C° 0 mm 4 mps 764 mmHg 77%
    17:00 +12°C° 0 mm 4 mps 765 mmHg 80%
    18:00 +12°C° 0 mm 3 mps 765 mmHg 83%
    19:00 +11°C° 0 mm 3 mps 765 mmHg 85%
    20:00 +10°C° 0 mm 2 mps 765 mmHg 85%
    21:00 +10°C° 0 mm 2 mps 766 mmHg 85%
    22:00 +10°C° 0 mm 2 mps 766 mmHg 84%
    23:00 +10°C° 0 mm 2 mps 766 mmHg 82%
    Show more